Location: Mizzole
(45.4833°N, 11.0500°E)
Time: 07:36:00
(UTC+00:00)

Cosmos 1356 - Pass Details

Date: 21 October 2019
Orbit: 447 x 448 km, 81.1° (Epoch: 21 November)

Event Time Altitude Azimuth Distance (km) Brightness Sun altitude
Rises 17:03:34 0° 189° (S) 2,435 7.3 -8.2°
Reaches altitude 10° 17:05:37 10° 189° (S) 1,569 6.4 -8.6°
Maximum altitude 17:09:03 87° 101° (E) 455 3.4 -9.2°
Drops below altitude 10° 17:12:31 10° 11° (NNE) 1,585 6.0 -9.8°
Sets 17:14:35 0° 12° (NNE) 2,462 7.0 -10.1°
